• Join FlightAware (Why Join?)
  • Login
  • US Flag 
08:13AM EDT


 

Airport Tracker/Info


-or-


 

Live Flight TrackerFlight Track Log ✈ UAL5900 ✈ 14-Apr-2013 ✈ KTVC - KORD

Flight Track Log - Related Links

Times and Time Zones

All times are in EDT time to prevent confusion due to time zone crossing. See the UAL5900 flight status page for this flight to view local times or setup timezone preferences in your user account.

Time Position Orientation Groundspeed Altitude Reporting Facility
EDT Latitude Longitude Course Direction KTS MPH feet Rate Location/Type
03:37PM 44.7383 -85.5269 190° South 153 176 2,500  Level Chicago Center
03:38PM 44.7092 -85.4697 126° Southeast 235 270 4,600 2,400 Climbing Chicago Center
03:39PM 44.5331 -85.5750 187° South  Level FlightAware Approximate
03:39PM 44.6439 -85.4822 188° South 241 277 7,300  Level Minneapolis Center
03:40PM 44.4725 -85.5833 180° South  Level FlightAware Approximate
03:40PM 44.5756 -85.5058 194° South 248 285 10,000  Level Minneapolis Center
03:41PM 44.4125 -85.5969 190° South  Level FlightAware Approximate
03:41PM 44.5053 -85.5294 193° South 255 293 11,600  Level Minneapolis Center
03:42PM 44.3525 -85.6119 190° South  Level FlightAware Approximate
03:42PM 44.4058 -85.5625 193° South 305 351 13,100  Level Minneapolis Center
03:43PM 44.3003 -85.5989 194° South 324 373 14,600 1,200 Climbing Minneapolis Center
03:45PM 44.1317 -85.6572 194° South 349 402 16,800 1,080 Climbing Chicago Center
03:46PM 44.0331 -85.6908 194° South 362 417 17,900 1,200 Climbing Chicago Center
03:47PM 43.9139 -85.7294 193° South 367 422 19,400 1,260 Climbing Chicago Center
03:48PM 43.8206 -85.7597 193° South 376 433 20,600 1,200 Climbing Chicago Center
03:49PM 43.6950 -85.8008 193° South 385 443 22,000 1,200 Climbing Minneapolis Center
03:50PM 43.5881 -85.8278 190° South 389 448 23,200 960 Climbing Minneapolis Center
03:51PM 43.4803 -85.8542 190° South 392 451 24,000 300 Climbing Minneapolis Center
03:52PM 43.3661 -85.8822 190° South 407 468 23,900 -840 Descending Minneapolis Center
03:53PM 43.2478 -85.9125 191° South 430 495 22,300 -1,800 Descending Chicago Center
03:54PM 43.1411 -85.9444 192° South 393 452 20,300 -1,140 Descending Chicago Center
03:55PM 43.0672 -86.0364 222° Southwest 377 434 20,000 -180 Descending Chicago Center
03:56PM 42.9906 -86.1786 234° Southwest 396 456 20,000  Level Chicago Center
03:57PM 42.9297 -86.3003 236° Southwest 391 450 20,000  Level Chicago Center
03:58PM 42.8689 -86.4192 235° Southwest 386 444 20,000  Level Chicago Center
03:59PM 42.8069 -86.5381 235° Southwest 387 445 20,000  Level Chicago Center
04:00PM 42.7453 -86.6569 235° Southwest 387 445 20,000 -600 Level Chicago Center
04:01PM 42.6700 -86.8014 235° Southwest 392 451 18,800 -1,680 Descending Chicago Center
04:02PM 42.6106 -86.9150 235° Southwest 376 433 16,600 -2,100 Descending Chicago Center
04:04PM 42.5564 -87.0219 236° Southwest 348 400 14,500 -2,160 Descending Chicago Center
04:05PM 42.5025 -87.1217 234° Southwest 330 380 12,200 -2,160 Descending Chicago Center
04:06PM 42.4517 -87.2203 235° Southwest 323 372 10,100 -1,080 Descending Chicago Center
04:07PM 42.4008 -87.3147 234° Southwest 313 360 10,000 -60 Descending Chicago Center
04:08PM 42.3653 -87.4347 248° West 307 353 10,000  Level Chicago Center
04:09PM 42.3333 -87.5403 248° West 306 352 10,000  Level Chicago Center
04:10PM 42.2661 -87.6133 219° Southwest 313 360 10,000  Level Chicago Center
04:11PM 42.1850 -87.6967 217° Southwest 308 354 10,000 -540 Level Chicago Center
04:12PM 42.1306 -87.7550 218° Southwest 253 291 9,000 -1,380 Descending Chicago Center
04:12PM 42.1000 -87.7833 215° Southwest 236 272 8,100 -1,500 Descending Chicago TRACON
04:13PM 42.0833 -87.8667 255° West 235 270 7,000 -600 Descending Chicago TRACON
04:14PM 42.0667 -87.9333 251° West 211 243 7,000  Level Chicago TRACON
04:15PM 42.0667 -88.0167 270° West 217 250 7,000 -240 Level Chicago TRACON
04:16PM 42.0833 -88.0833 289° West 182 209 6,600 -780 Descending Chicago TRACON
04:17PM 42.0814 -88.1389 267° West 195 224 5,700 -1,200 Descending Chicago Center
04:18PM 42.0814 -88.1994 270° West 181 208 4,500 -840 Descending Chicago Center
04:19PM 42.0456 -88.2117 194° South 166 191 4,000 -300 Descending Chicago Center
04:20PM 42.0094 -88.1806 147° Southeast 165 190 4,000 -120 Level Chicago Center
04:21PM 41.9728 -88.1197 129° Southeast 174 200 3,800 -660 Descending Chicago Center
04:22PM 41.9667 -88.0500 97° East 180 207 2,700 -1,080 Descending Chicago TRACON
04:23PM 41.9667 -87.9833 90° East 146 168 1,600 -1,140 Descending Chicago TRACON